Change the Weather History Date:

Saturday, November 17, 2012

  Actual Average Record
Temperature  
Mean Temperature 60 °F -  
Max Temperature 68 °F 67 °F - ()
Min Temperature 53 °F 46 °F - ()
Degree Days  
Heating Degree Days 4    
Growing Degree Days 10 (Base 50)    
Moisture  
Dew Point 55 °F    
Average Humidity 86    
Maximum Humidity 100    
Minimum Humidity 60    
Precipitation  
Precipitation 0.01 in 0.05 in - ()
Sea Level Pressure  
Sea Level Pressure 29.92 in    
Wind  
Wind Speed 5 mph ()    
Max Wind Speed 21 mph    
Max Gust Speed -    
Visibility 6.0 miles    
Events Rain    
T = Trace of Precipitation, MM = Missing Value Source: Averaged Metar Reports

Daily Weather History Graph

Daily Weather History Graph

Search for Another Location

Airport or City:

Trip Planner

Search our weather history database for the weather conditions in past years. The results will help you decide how hot, cold, wet, or windy it might be!

Date:

Astronomy

Nov. 17, 2012 Rise Set
Actual Time 7:02 AM WET 5:31 PM WET
Civil Twilight 6:36 AM WET 5:57 PM WET
Nautical Twilight 6:06 AM WET 6:27 PM WET
Astronomical Twilight 5:37 AM WET 6:56 PM WET
Moon 10:35 AM WET (11/17) 9:25 PM WET (11/17)
Length of Visible Light 11h 21m
Length of Day
10h 29m
Waxing Crescent, 18% of the Moon is Illuminated
Nov 17
Waxing Crescent
Nov 20
First Quarter
Nov 28
Full
Dec 6
Last Quarter
Dec 13
New

Hourly Weather History & Observations

Time (WET) Temp. Dew Point Humidity Pressure Visibility Wind Dir Wind Speed Gust Speed Precip Events Conditions
12:00 AM 58 °F 53 °F 78% 29.95 in 6 mi Calm Calm - -   Scattered Clouds
12:00 AM 57.2 °F 53.6 °F 88% 29.95 in 5.6 mi Calm Calm - N/A   Scattered Clouds
12:30 AM 57.2 °F 53.6 °F 88% 29.98 in 6.2 mi Calm Calm - N/A   Scattered Clouds
1:00 AM 59.0 °F 53.6 °F 82% 29.95 in 5.6 mi ESE 2.3 mph - N/A   Scattered Clouds
1:30 AM 57.2 °F 53.6 °F 88% 29.95 in 5.0 mi ESE 4.6 mph - N/A   Scattered Clouds
2:00 AM 57.2 °F 53.6 °F 88% 29.95 in 5.6 mi East 4.6 mph - N/A   Scattered Clouds
2:30 AM 55.4 °F 53.6 °F 94% 29.92 in 5.6 mi East 4.6 mph - N/A   Scattered Clouds
3:00 AM 56 °F 54 °F 91% 29.92 in 6 mi East 2.3 mph - -   Scattered Clouds
3:00 AM 55.4 °F 53.6 °F 94% 29.92 in 6.2 mi East 2.3 mph - N/A   Scattered Clouds
3:30 AM 55.4 °F 53.6 °F 94% 29.92 in 6.2 mi East 3.5 mph - N/A   Scattered Clouds
4:00 AM 55.4 °F 53.6 °F 94% 29.89 in 6.2 mi ESE 4.6 mph - N/A   Mostly Cloudy
4:30 AM 55.4 °F 53.6 °F 94% 29.92 in 6.2 mi Calm Calm - N/A   Mostly Cloudy
5:00 AM 55.4 °F 51.8 °F 88% 29.89 in 6.2 mi ENE 3.5 mph - N/A   Mostly Cloudy
5:30 AM 55.4 °F 53.6 °F 94% 29.89 in 6.2 mi SE 3.5 mph - N/A   Mostly Cloudy
5:48 AM 56 °F 53 °F 86% 29.90 in 6 mi South 2.3 mph - -   Scattered Clouds
6:00 AM 55.4 °F 53.6 °F 94% 29.89 in 6.2 mi Variable 2.3 mph - N/A   Partly Cloudy
6:30 AM 55.4 °F 53.6 °F 94% 29.89 in 6.2 mi NW 2.3 mph - N/A   Scattered Clouds
7:00 AM 53.6 °F 51.8 °F 94% 29.92 in 6.2 mi West 1.2 mph - N/A   Scattered Clouds
7:30 AM 53.6 °F 51.8 °F 94% 29.92 in 6.2 mi Calm Calm - N/A   Scattered Clouds
8:00 AM 57.2 °F 55.4 °F 94% 29.92 in 6.2 mi Calm Calm - N/A   Scattered Clouds
8:30 AM 59.0 °F 53.6 °F 82% 29.92 in 5.0 mi Variable 1.2 mph - N/A   Scattered Clouds
9:00 AM 59 °F 55 °F 81% 29.91 in 5 mi ENE 2.3 mph - -   Partly Cloudy
9:00 AM 59.0 °F 55.4 °F 88% 29.92 in 5.0 mi East 2.3 mph - N/A   Scattered Clouds
9:30 AM 60.8 °F 53.6 °F 77% 29.92 in 6.2 mi East 3.5 mph - N/A   Scattered Clouds
10:00 AM 62.6 °F 53.6 °F 72% 29.95 in 6.2 mi Variable 2.3 mph - N/A   Scattered Clouds
10:30 AM 64.4 °F 53.6 °F 68% 29.92 in 6.2 mi North 3.5 mph - N/A   Scattered Clouds
11:00 AM 66.2 °F 53.6 °F 64% 29.92 in 6.2 mi Variable 2.3 mph - N/A   Unknown
11:30 AM 66.2 °F 53.6 °F 64% 29.92 in 6.2 mi NW 3.5 mph - N/A   Unknown
12:00 PM 65 °F 54 °F 60% 29.88 in 6 mi WSW 3.5 mph - -   Partly Cloudy
12:00 PM 66.2 °F 53.6 °F 64% 29.92 in 6.2 mi WSW 3.5 mph - N/A   Mostly Cloudy
12:30 PM 66.2 °F 55.4 °F 68% 29.89 in 6.2 mi WSW 4.6 mph - N/A   Mostly Cloudy
1:00 PM 68.0 °F 55.4 °F 64% 29.89 in 6.2 mi West 11.5 mph - N/A   Mostly Cloudy
1:30 PM 68.0 °F 55.4 °F 64% 29.89 in 6.2 mi West 11.5 mph - N/A   Mostly Cloudy
2:00 PM 68.0 °F 57.2 °F 68% 29.86 in 6.2 mi WSW 11.5 mph - N/A   Scattered Clouds
2:30 PM 68.0 °F 57.2 °F 68% 29.86 in 6.2 mi West 13.8 mph - N/A   Scattered Clouds
3:00 PM 68.0 °F 55.4 °F 64% 29.86 in 6.2 mi West 19.6 mph - N/A   Scattered Clouds
3:30 PM 64.4 °F 57.2 °F 77% 29.86 in 6.2 mi West 20.7 mph - N/A   Scattered Clouds
4:00 PM 60.8 °F 57.2 °F 88% 29.89 in 6.2 mi West 19.6 mph - N/A   Scattered Clouds
4:30 PM 60.8 °F 59.0 °F 94% 29.89 in 6.2 mi West 15.0 mph - N/A   Scattered Clouds
5:00 PM 62.6 °F 57.2 °F 82% 29.89 in 6.2 mi West 15.0 mph - N/A   Scattered Clouds
5:30 PM 60.8 °F 57.2 °F 88% 29.89 in 6.2 mi West 13.8 mph - N/A   Scattered Clouds
6:00 PM 60 °F 57 °F 88% 29.89 in 6 mi West 9.2 mph - -   Mostly Cloudy
6:00 PM 60.8 °F 57.2 °F 88% 29.92 in 6.2 mi West 10.4 mph - N/A   Scattered Clouds
6:30 PM 59.0 °F 57.2 °F 94% 29.92 in 6.2 mi West 12.7 mph - N/A   Scattered Clouds
7:00 PM 59.0 °F 57.2 °F 94% 29.92 in 6.2 mi West 11.5 mph - N/A   Scattered Clouds
7:30 PM 59.0 °F 57.2 °F 94% 29.95 in 6.2 mi West 9.2 mph - N/A Rain Rain
8:00 PM 59.0 °F 57.2 °F 94% 29.95 in 6.2 mi West 9.2 mph - N/A Rain Rain
8:30 PM 57.2 °F 57.2 °F 100% 29.95 in 6.2 mi West 9.2 mph - N/A   Scattered Clouds
9:00 PM 58 °F 57 °F 97% 29.95 in 6 mi SW 9.2 mph - -   Mostly Cloudy
9:00 PM 57.2 °F 57.2 °F 100% 29.95 in 6.2 mi SW 8.1 mph - N/A   Scattered Clouds
9:30 PM 57.2 °F 57.2 °F 100% 29.98 in 6.2 mi SW 9.2 mph - N/A   Scattered Clouds
10:00 PM 57.2 °F 57.2 °F 100% 29.98 in 6.2 mi WSW 13.8 mph - N/A   Scattered Clouds
10:30 PM 57.2 °F 57.2 °F 100% 29.98 in 6.2 mi SW 9.2 mph - N/A   Scattered Clouds
11:00 PM 57.2 °F 57.2 °F 100% 29.98 in 6.2 mi SW 10.4 mph - N/A   Scattered Clouds
11:30 PM 57.2 °F 57.2 °F 100% 29.98 in 6.2 mi SW 10.4 mph - N/A   Scattered Clouds